Weather History for Fort Collins, CO

Change the Weather History Date:

Sunday, February 12, 2012

  Actual Average Record
Temperature  
Mean Temperature 14 °F -  
Max Temperature 23 °F 43 °F 59 °F (2011)
Min Temperature 6 °F 19 °F -2 °F (2004)
Degree Days  
Heating Degree Days 50    
Moisture  
Dew Point 11 °F    
Average Humidity 87    
Maximum Humidity 100    
Minimum Humidity 74    
Precipitation  
Precipitation 0.00 in - - ()
Sea Level Pressure  
Sea Level Pressure 29.85 in    
Wind  
Wind Speed 1 mph (ENE)    
Max Wind Speed 7 mph    
Max Gust Speed -    
Visibility 6 miles    
Events      
Averages and records for this station are not official NWS values.
T = Trace of Precipitation, MM = Missing Value Source: NWS Daily Summary

Daily Weather History Graph

Daily Weather History Graph

Search for Another Location

Airport:

Trip Planner

Search our weather history database for the weather conditions in past years. The results will help you decide how hot, cold, wet, or windy it might be!

Date:

Astronomy

Feb. 12, 2012 Rise Set
Actual Time 6:57 AM MST 5:31 PM MST
Civil Twilight 6:29 AM MST 5:59 PM MST
Nautical Twilight 5:57 AM MST 6:31 PM MST
Astronomical Twilight 5:26 AM MST 7:03 PM MST
Moon 11:33 PM MST (2/12) 9:16 AM MST (2/12)
Length of Visible Light 11h 29m
Length of Day
10h 33m
Waning Gibbous, 71% of the Moon is Illuminated
Feb 12
Waning Gibbous
Feb 14
Last Quarter
Feb 21
New
Feb 29
First Quarter
Mar 8
Full

Hourly Weather History & Observations

Time (MST) Temp. Windchill Dew Point Humidity Pressure Visibility Wind Dir Wind Speed Gust Speed Precip Events Conditions
12:15 AM 8.6 °F - 5.0 °F 85% 30.09 in 8.0 mi Calm Calm - N/A   Clear
12:35 AM 8.6 °F - 6.8 °F 92% 30.08 in 10.0 mi Calm Calm - N/A   Clear
1:15 AM 6.8 °F - 3.2 °F 85% 30.07 in 5.0 mi Calm Calm - N/A   Clear
1:35 AM 8.6 °F - 6.8 °F 92% 30.06 in 6.0 mi Calm Calm - N/A   Clear
1:55 AM 8.6 °F - 6.8 °F 92% 30.05 in 7.0 mi Calm Calm - N/A   Clear
2:15 AM 8.6 °F - 6.8 °F 92% 30.04 in 7.0 mi Calm Calm - N/A   Clear
2:35 AM 8.6 °F 2.0 °F 6.8 °F 92% 30.03 in 7.0 mi North 3.5 mph - N/A   Clear
2:55 AM 8.6 °F 2.0 °F 6.8 °F 92% 30.02 in 6.0 mi North 3.5 mph - N/A   Partly Cloudy
3:35 AM 8.6 °F 2.0 °F 5.0 °F 85% 30.00 in 8.0 mi North 3.5 mph - N/A   Overcast
3:55 AM 8.6 °F - 6.8 °F 92% 29.99 in 8.0 mi Calm Calm - N/A   Overcast
4:15 AM 8.6 °F - 6.8 °F 92% 29.99 in 8.0 mi Calm Calm - N/A   Overcast
4:35 AM 8.6 °F - 6.8 °F 92% 29.98 in 2.5 mi Calm Calm - N/A   Overcast
4:55 AM 8.6 °F - 8.6 °F 100% 29.97 in 0.5 mi Calm Calm - N/A   Overcast
5:15 AM 8.6 °F - 6.8 °F 92% 29.96 in 3.0 mi Calm Calm - N/A   Mostly Cloudy
5:35 AM 8.6 °F - 6.8 °F 92% 29.96 in 2.5 mi Calm Calm - N/A   Scattered Clouds
5:55 AM 8.6 °F - 6.8 °F 92% 29.94 in 1.8 mi Calm Calm - N/A   Overcast
6:15 AM 10.4 °F - 6.8 °F 85% 29.93 in 0.8 mi Calm Calm - N/A   Overcast
6:35 AM 10.4 °F - 8.6 °F 92% 29.92 in 1.8 mi Calm Calm - N/A   Overcast
6:55 AM 10.4 °F - 8.6 °F 92% 29.93 in 1.5 mi Calm Calm - N/A   Overcast
7:15 AM 10.4 °F - 6.8 °F 85% 29.92 in 0.8 mi Calm Calm - N/A   Overcast
7:35 AM 10.4 °F - 6.8 °F 85% 29.92 in 1.0 mi Calm Calm - N/A   Overcast
7:55 AM 10.4 °F - 8.6 °F 92% 29.91 in 1.5 mi Calm Calm - N/A   Overcast
8:15 AM 10.4 °F - 8.6 °F 92% 29.91 in 2.5 mi Calm Calm - N/A   Overcast
8:55 AM 10.4 °F - 8.6 °F 92% 29.89 in 3.0 mi Calm Calm - N/A   Mostly Cloudy
9:15 AM 10.4 °F - 8.6 °F 92% 29.89 in 5.0 mi Calm Calm - N/A   Clear
9:35 AM 10.4 °F - 10.4 °F 100% 29.89 in 5.0 mi Calm Calm - N/A   Clear
9:55 AM 10.4 °F - 8.6 °F 92% 29.87 in 5.0 mi Calm Calm - N/A   Clear
10:15 AM 12.2 °F - 10.4 °F 92% 29.87 in 5.0 mi Calm Calm - N/A   Clear
10:35 AM 12.2 °F - 10.4 °F 92% 29.85 in 5.0 mi Calm Calm - N/A   Clear
10:55 AM 15.8 °F - 12.2 °F 86% 29.84 in 5.0 mi Calm Calm - N/A   Clear
11:15 AM 15.8 °F - 12.2 °F 86% 29.83 in 6.0 mi Calm Calm - N/A   Clear
11:35 AM 15.8 °F 10.2 °F 12.2 °F 86% 29.82 in 6.0 mi SW 3.5 mph - N/A   Clear
11:55 AM 15.8 °F - 14.0 °F 93% 29.80 in 7.0 mi Calm Calm - N/A   Clear
12:15 PM 17.6 °F - 14.0 °F 86% 29.78 in 8.0 mi Calm Calm - N/A   Clear
12:35 PM 17.6 °F 12.3 °F 12.2 °F 79% 29.77 in 8.0 mi South 3.5 mph - N/A   Clear
1:15 PM 19.4 °F - 12.2 °F 74% 29.75 in 8.0 mi Calm Calm - N/A   Clear
1:35 PM 19.4 °F 14.3 °F 14.0 °F 80% 29.73 in 8.0 mi NW 3.5 mph - N/A   Clear
1:55 PM 19.4 °F 14.3 °F 15.8 °F 86% 29.72 in 8.0 mi NW 3.5 mph - N/A   Clear
2:15 PM 19.4 °F - 15.8 °F 86% 29.72 in 7.0 mi Calm Calm - N/A   Partly Cloudy
2:35 PM 21.2 °F - 15.8 °F 80% 29.71 in 8.0 mi Calm Calm - N/A   Mostly Cloudy
2:55 PM 21.2 °F - 15.8 °F 80% 29.72 in 8.0 mi Calm Calm - N/A   Mostly Cloudy
3:15 PM 21.2 °F 16.4 °F 15.8 °F 80% 29.71 in 8.0 mi East 3.5 mph - N/A   Mostly Cloudy
3:35 PM 23.0 °F 17.0 °F 15.8 °F 74% 29.70 in 8.0 mi East 4.6 mph - N/A   Scattered Clouds
3:55 PM 23.0 °F 18.4 °F 15.8 °F 74% 29.70 in 8.0 mi SE 3.5 mph - N/A   Partly Cloudy
4:15 PM 21.2 °F - 15.8 °F 80% 29.70 in 8.0 mi Calm Calm - N/A   Clear
4:35 PM 21.2 °F 14.9 °F 15.8 °F 80% 29.69 in 8.0 mi SE 4.6 mph - N/A   Clear
4:55 PM 21.2 °F - 15.8 °F 80% 29.68 in 7.0 mi Calm Calm - N/A   Clear
5:15 PM 21.2 °F 16.4 °F 15.8 °F 80% 29.68 in 7.0 mi SW 3.5 mph - N/A   Mostly Cloudy
5:35 PM 21.2 °F - 15.8 °F 80% 29.68 in 7.0 mi Calm Calm - N/A   Overcast
5:55 PM 21.2 °F - 15.8 °F 80% 29.68 in 8.0 mi Calm Calm - N/A   Mostly Cloudy
6:35 PM 21.2 °F 12.6 °F 15.8 °F 80% 29.67 in 8.0 mi ENE 6.9 mph - N/A   Mostly Cloudy
6:55 PM 21.2 °F - 17.6 °F 86% 29.68 in 7.0 mi Calm Calm - N/A   Mostly Cloudy
7:15 PM 21.2 °F - 17.6 °F 86% 29.68 in 8.0 mi Calm Calm - N/A   Overcast
7:35 PM 21.2 °F - 15.8 °F 80% 29.69 in 8.0 mi Calm Calm - N/A   Overcast
7:55 PM 21.2 °F 14.9 °F 15.8 °F 80% 29.69 in 8.0 mi East 4.6 mph - N/A   Overcast
8:15 PM 21.2 °F 16.4 °F 15.8 °F 80% 29.69 in 8.0 mi ESE 3.5 mph - N/A   Overcast
8:35 PM 21.2 °F 14.9 °F 17.6 °F 86% 29.69 in 8.0 mi ESE 4.6 mph - N/A   Overcast
8:55 PM 21.2 °F - 17.6 °F 86% 29.69 in 7.0 mi Calm Calm - N/A   Overcast
9:15 PM 21.2 °F - 17.6 °F 86% 29.68 in 5.0 mi Calm Calm - N/A   Overcast
9:35 PM 21.2 °F 16.4 °F 17.6 °F 86% 29.67 in 6.0 mi SW 3.5 mph - N/A   Mostly Cloudy
9:55 PM 21.2 °F 16.4 °F 17.6 °F 86% 29.67 in 7.0 mi SW 3.5 mph - N/A   Mostly Cloudy
10:15 PM 21.2 °F - 15.8 °F 80% 29.67 in 7.0 mi Calm Calm - N/A   Overcast
10:55 PM 21.2 °F - 17.6 °F 86% 29.66 in 6.0 mi Calm Calm - N/A   Overcast
11:15 PM 23.0 °F 17.0 °F 17.6 °F 80% 29.65 in 7.0 mi SW 4.6 mph - N/A   Overcast
11:35 PM 23.0 °F 18.4 °F 17.6 °F 80% 29.65 in 6.0 mi SSW 3.5 mph - N/A   Overcast
11:55 PM 23.0 °F 18.4 °F 17.6 °F 80% 29.64 in 7.0 mi SSW 3.5 mph - N/A   Overcast